Location: Laan Hart van Zuid
(52.2563°N, 6.7904°E)
Time: 05:13:23
(UTC+01:00)

ARIANE 6 FM1 Upper Stage - Pass Details

Date: 24 January 2026
Orbit: 522 x 608 km, 62.0° (Epoch: 18 February)

Event Time Altitude Azimuth Distance (km) Brightness Sun altitude
Rises 20:11:59 0° 240° (WSW) 2,693 6.9 -28.2°
Reaches altitude 10° 20:14:14 10° 245° (WSW) 1,792 5.9 -28.5°
Enters shadow 20:16:33 32° 260° (W) 940 4.3 -28.9°
